Time,TemperatureF,DewpointF,PressureIn,WindDirection,WindDirectionDegrees,WindSpeedMPH,WindSpeedGustMPH,Humidity,HourlyPrecipIn,Conditions,Clouds,dailyrainin,SoftwareType,DateUTC
2013-09-30 00:00:00,55.5,54.4,30.10,North,6,0.0,1.0,96,0.00,,OVC038,0.01,VWS V14.01,2013-09-30 04:00:00,
2013-09-30 00:01:00,55.6,54.5,30.10,North,6,0.0,0.0,96,0.00,,OVC038,0.00,VWS V14.01,2013-09-30 04:01:00,
2013-09-30 00:06:00,55.5,54.4,30.10,North,6,0.0,0.0,96,0.00,,OVC038,0.00,VWS V14.01,2013-09-30 04:06:00,
2013-09-30 00:10:00,55.5,54.4,30.10,North,6,0.0,0.0,96,0.00,,OVC038,0.00,VWS V14.01,2013-09-30 04:10:00,
2013-09-30 00:11:00,55.5,54.4,30.10,North,6,0.0,0.0,96,0.00,,OVC038,0.00,VWS V14.01,2013-09-30 04:11:00,
2013-09-30 00:16:00,55.4,54.3,30.10,North,6,0.0,0.0,96,0.00,,OVC038,0.00,VWS V14.01,2013-09-30 04:16:00,
2013-09-30 00:20:00,55.3,54.2,30.09,North,6,0.0,0.0,96,0.00,,OVC038,0.00,VWS V14.01,2013-09-30 04:20:00,
2013-09-30 00:21:00,55.3,54.2,30.09,North,6,0.0,0.0,96,0.00,,OVC038,0.00,VWS V14.01,2013-09-30 04:21:00,
2013-09-30 00:26:00,55.2,54.1,30.09,North,6,0.0,0.0,96,0.00,,OVC038,0.00,VWS V14.01,2013-09-30 04:26:00,
2013-09-30 00:30:00,55.2,54.1,30.09,North,6,0.0,0.0,96,0.00,,OVC038,0.00,VWS V14.01,2013-09-30 04:30:00,
2013-09-30 00:31:00,55.2,54.1,30.09,North,6,0.0,0.0,96,0.00,,OVC038,0.00,VWS V14.01,2013-09-30 04:31:00,
2013-09-30 00:36:00,55.1,54.0,30.09,NNW,339,1.0,1.0,96,0.00,,OVC038,0.00,VWS V14.01,2013-09-30 04:36:00,
2013-09-30 00:40:00,55.1,54.0,30.09,NNW,338,0.0,1.0,96,0.00,,OVC038,0.00,VWS V14.01,2013-09-30 04:40:00,
2013-09-30 00:41:00,55.0,53.9,30.09,NNW,339,1.0,1.0,96,0.00,,OVC038,0.00,VWS V14.01,2013-09-30 04:41:00,
2013-09-30 00:46:00,55.1,54.3,30.09,North,349,1.0,2.0,97,0.00,,OVC038,0.00,VWS V14.01,2013-09-30 04:46:00,
2013-09-30 00:50:00,55.1,54.3,30.09,North,8,0.0,3.0,97,0.00,,OVC038,0.00,VWS V14.01,2013-09-30 04:50:00,
2013-09-30 00:51:00,55.1,54.3,30.09,North,359,0.0,2.0,97,0.00,,OVC038,0.00,VWS V14.01,2013-09-30 04:51:00,
2013-09-30 00:56:00,55.1,54.3,30.09,North,356,0.0,2.0,97,0.00,,OVC038,0.00,VWS V14.01,2013-09-30 04:56:00,
2013-09-30 01:00:00,55.1,54.3,30.09,North,359,0.0,2.0,97,0.00,,OVC038,0.00,VWS V14.01,2013-09-30 05:00:00,
2013-09-30 01:01:00,55.1,54.3,30.09,North,358,1.0,1.0,97,0.00,,OVC038,0.00,VWS V14.01,2013-09-30 05:01:00,
2013-09-30 01:06:00,55.1,54.3,30.09,North,354,1.0,2.0,97,0.00,,OVC038,0.00,VWS V14.01,2013-09-30 05:06:00,
2013-09-30 01:10:00,55.1,54.3,30.09,NW,312,0.0,2.0,97,0.00,,OVC038,0.00,VWS V14.01,2013-09-30 05:10:00,
2013-09-30 01:11:00,55.1,54.3,30.09,NNE,24,2.0,2.0,97,0.00,,OVC038,0.00,VWS V14.01,2013-09-30 05:11:00,
2013-09-30 01:16:00,55.1,54.3,30.09,NNE,28,0.0,3.0,97,0.00,,OVC038,0.00,VWS V14.01,2013-09-30 05:16:00,
2013-09-30 01:20:00,55.1,54.3,30.09,NNE,22,1.0,3.0,97,0.00,,OVC038,0.00,VWS V14.01,2013-09-30 05:20:00,
2013-09-30 01:21:00,55.1,54.3,30.09,NNW,347,1.0,1.0,97,0.00,,OVC038,0.00,VWS V14.01,2013-09-30 05:21:00,
2013-09-30 01:26:00,55.1,54.3,30.08,NNW,333,0.0,2.0,97,0.00,,OVC038,0.00,VWS V14.01,2013-09-30 05:26:00,
2013-09-30 01:30:00,55.1,54.3,30.08,NNE,15,0.0,2.0,97,0.00,,OVC038,0.00,VWS V14.01,2013-09-30 05:30:00,
2013-09-30 01:31:00,55.0,54.2,30.09,NNE,15,0.0,0.0,97,0.00,,OVC038,0.00,VWS V14.01,2013-09-30 05:31:00,
2013-09-30 01:36:00,55.0,54.2,30.09,NNW,333,0.0,1.0,97,0.00,,OVC038,0.00,VWS V14.01,2013-09-30 05:36:00,
2013-09-30 01:40:00,54.9,54.1,30.09,NNE,22,1.0,1.0,97,0.00,,OVC038,0.00,VWS V14.01,2013-09-30 05:40:00,
2013-09-30 01:41:00,54.9,54.1,30.09,North,11,0.0,1.0,97,0.00,,OVC038,0.00,VWS V14.01,2013-09-30 05:41:00,
2013-09-30 01:46:00,54.9,54.1,30.09,North,350,0.0,1.0,97,0.00,,OVC038,0.00,VWS V14.01,2013-09-30 05:46:00,
2013-09-30 01:50:00,54.9,54.1,30.09,NW,321,0.0,2.0,97,0.00,,OVC038,0.00,VWS V14.01,2013-09-30 05:50:00,
2013-09-30 01:51:00,54.9,54.1,30.09,NW,319,1.0,1.0,97,0.00,,OVC038,0.00,VWS V14.01,2013-09-30 05:51:00,
2013-09-30 01:56:00,54.7,53.9,30.09,NW,323,0.0,1.0,97,0.00,,OVC038,0.00,VWS V14.01,2013-09-30 05:56:00,
2013-09-30 02:00:00,54.7,53.9,30.09,North,5,2.0,2.0,97,0.00,,OVC038,0.00,VWS V14.01,2013-09-30 06:00:00,
2013-09-30 02:01:00,54.7,53.9,30.09,North,4,1.0,2.0,97,0.00,,OVC038,0.00,VWS V14.01,2013-09-30 06:01:00,
2013-09-30 02:06:00,54.7,53.9,30.08,North,359,0.0,2.0,97,0.00,,OVC038,0.00,VWS V14.01,2013-09-30 06:06:00,
2013-09-30 02:10:00,54.7,53.9,30.08,North,356,0.0,2.0,97,0.00,,OVC038,0.00,VWS V14.01,2013-09-30 06:10:00,
2013-09-30 02:11:00,54.7,53.9,30.08,North,6,1.0,2.0,97,0.00,,OVC038,0.00,VWS V14.01,2013-09-30 06:11:00,
2013-09-30 02:16:00,54.8,54.0,30.08,NNE,16,0.0,2.0,97,0.00,,OVC038,0.00,VWS V14.01,2013-09-30 06:16:00,
2013-09-30 02:20:00,54.8,54.0,30.08,North,6,0.0,2.0,97,0.00,,OVC038,0.00,VWS V14.01,2013-09-30 06:20:00,
2013-09-30 02:21:00,54.8,54.0,30.08,North,5,0.0,0.0,97,0.00,,OVC038,0.00,VWS V14.01,2013-09-30 06:21:00,
2013-09-30 02:26:00,54.8,54.0,30.08,West,277,0.0,2.0,97,0.00,,OVC038,0.00,VWS V14.01,2013-09-30 06:26:00,
2013-09-30 02:30:00,54.8,54.0,30.08,WNW,283,1.0,2.0,97,0.00,,OVC038,0.00,VWS V14.01,2013-09-30 06:30:00,
2013-09-30 02:31:00,54.8,54.0,30.08,WNW,290,1.0,2.0,97,0.00,,OVC038,0.00,VWS V14.01,2013-09-30 06:31:00,
2013-09-30 02:36:00,54.8,54.0,30.08,North,11,0.0,2.0,97,0.00,,OVC038,0.00,VWS V14.01,2013-09-30 06:36:00,
2013-09-30 02:40:00,54.9,54.1,30.08,NNW,345,0.0,2.0,97,0.00,,OVC038,0.00,VWS V14.01,2013-09-30 06:40:00,
2013-09-30 02:41:00,54.9,54.1,30.08,North,352,0.0,2.0,97,0.00,,OVC038,0.00,VWS V14.01,2013-09-30 06:41:00,
2013-09-30 02:46:00,54.9,54.1,30.08,NNE,18,1.0,2.0,97,0.00,,OVC038,0.00,VWS V14.01,2013-09-30 06:46:00,
2013-09-30 02:50:00,55.0,54.5,30.08,North,354,0.0,3.0,98,0.00,,OVC038,0.00,VWS V14.01,2013-09-30 06:50:00,
2013-09-30 02:51:00,55.1,54.5,30.08,NNE,17,1.0,3.0,98,0.00,,OVC038,0.00,VWS V14.01,2013-09-30 06:51:00,
2013-09-30 02:56:00,55.2,54.7,30.08,North,11,0.0,3.0,98,0.00,,OVC038,0.00,VWS V14.01,2013-09-30 06:56:00,
2013-09-30 03:00:00,55.3,54.8,30.08,North,6,0.0,3.0,98,0.00,,OVC038,0.00,VWS V14.01,2013-09-30 07:00:00,
2013-09-30 03:01:00,55.3,54.8,30.08,North,6,0.0,0.0,98,0.00,,OVC038,0.00,VWS V14.01,2013-09-30 07:01:00,
2013-09-30 03:06:00,55.4,54.8,30.08,North,6,0.0,1.0,98,0.00,,OVC038,0.00,VWS V14.01,2013-09-30 07:06:00,
2013-09-30 03:10:00,55.4,54.8,30.08,NNE,12,0.0,2.0,98,0.00,,OVC038,0.00,VWS V14.01,2013-09-30 07:10:00,
2013-09-30 03:11:00,55.4,54.8,30.08,NNE,12,0.0,0.0,98,0.00,,OVC038,0.00,VWS V14.01,2013-09-30 07:11:00,
2013-09-30 03:16:00,55.4,54.8,30.08,North,356,0.0,2.0,98,0.00,,OVC038,0.00,VWS V14.01,2013-09-30 07:16:00,
2013-09-30 03:20:00,55.4,54.8,30.08,North,356,0.0,2.0,98,0.00,,OVC038,0.00,VWS V14.01,2013-09-30 07:20:00,
2013-09-30 03:21:00,55.4,54.8,30.08,North,356,0.0,0.0,98,0.00,,OVC038,0.00,VWS V14.01,2013-09-30 07:21:00,
2013-09-30 03:26:00,55.4,54.8,30.08,North,356,0.0,0.0,98,0.00,,OVC038,0.00,VWS V14.01,2013-09-30 07:26:00,
2013-09-30 03:30:00,55.4,54.8,30.08,North,356,0.0,1.0,98,0.00,,OVC038,0.00,VWS V14.01,2013-09-30 07:30:00,
2013-09-30 03:31:00,55.4,54.8,30.08,North,359,0.0,1.0,98,0.00,,OVC038,0.00,VWS V14.01,2013-09-30 07:31:00,
2013-09-30 03:36:00,55.5,55.0,30.08,North,358,0.0,1.0,98,0.00,,OVC038,0.00,VWS V14.01,2013-09-30 07:36:00,
2013-09-30 03:40:00,55.6,55.0,30.08,North,359,0.0,1.0,98,0.00,,OVC038,0.00,VWS V14.01,2013-09-30 07:40:00,
2013-09-30 03:41:00,55.6,55.0,30.08,North,359,0.0,0.0,98,0.00,,OVC038,0.00,VWS V14.01,2013-09-30 07:41:00,
2013-09-30 03:46:00,55.7,55.2,30.08,NNE,25,0.0,1.0,98,0.00,,OVC038,0.00,VWS V14.01,2013-09-30 07:46:00,
2013-09-30 03:50:00,55.8,55.2,30.08,North,5,0.0,3.0,98,0.00,,OVC038,0.00,VWS V14.01,2013-09-30 07:50:00,
2013-09-30 03:51:00,55.8,55.2,30.08,NNW,345,1.0,1.0,98,0.00,,OVC038,0.00,VWS V14.01,2013-09-30 07:51:00,
2013-09-30 03:56:00,55.8,55.2,30.08,NNW,348,1.0,2.0,98,0.00,,OVC038,0.00,VWS V14.01,2013-09-30 07:56:00,
2013-09-30 04:00:00,55.7,55.2,30.08,NNW,331,0.0,2.0,98,0.00,,OVC038,0.00,VWS V14.01,2013-09-30 08:00:00,
2013-09-30 04:01:00,55.7,55.2,30.08,North,351,0.0,2.0,98,0.00,,OVC038,0.00,VWS V14.01,2013-09-30 08:01:00,
2013-09-30 04:06:00,55.7,55.2,30.08,NW,315,5.0,5.0,98,0.00,,OVC038,0.00,VWS V14.01,2013-09-30 08:06:00,
2013-09-30 04:10:00,55.6,54.8,30.08,NNW,340,0.0,5.0,97,0.00,,OVC038,0.00,VWS V14.01,2013-09-30 08:10:00,
2013-09-30 04:11:00,55.6,54.8,30.08,North,356,4.0,4.0,97,0.00,,OVC038,0.00,VWS V14.01,2013-09-30 08:11:00,
2013-09-30 04:16:00,55.5,54.7,30.08,North,11,1.0,4.0,97,0.00,,OVC038,0.00,VWS V14.01,2013-09-30 08:16:00,
2013-09-30 04:20:00,55.4,54.6,30.08,NNW,338,0.0,4.0,97,0.00,,OVC038,0.00,VWS V14.01,2013-09-30 08:20:00,
2013-09-30 04:21:00,55.4,54.6,30.08,North,7,2.0,2.0,97,0.00,,OVC038,0.00,VWS V14.01,2013-09-30 08:21:00,
2013-09-30 04:26:00,55.3,54.5,30.08,NNE,19,1.0,3.0,97,0.00,,OVC038,0.00,VWS V14.01,2013-09-30 08:26:00,
2013-09-30 04:30:00,55.2,54.4,30.08,NNW,341,2.0,4.0,97,0.00,,OVC038,0.00,VWS V14.01,2013-09-30 08:30:00,
2013-09-30 04:31:00,55.2,54.4,30.08,North,351,0.0,2.0,97,0.00,,OVC038,0.00,VWS V14.01,2013-09-30 08:31:00,
2013-09-30 04:36:00,55.0,54.2,30.08,NNE,24,1.0,8.0,97,0.00,,OVC038,0.00,VWS V14.01,2013-09-30 08:36:00,
2013-09-30 04:40:00,55.0,54.2,30.08,NNE,26,1.0,8.0,97,0.00,,OVC038,0.00,VWS V14.01,2013-09-30 08:40:00,
2013-09-30 04:41:00,54.9,54.1,30.08,NNE,24,0.0,2.0,97,0.00,,OVC038,0.00,VWS V14.01,2013-09-30 08:41:00,
2013-09-30 04:46:00,54.9,54.1,30.08,North,358,2.0,2.0,97,0.00,,OVC038,0.00,VWS V14.01,2013-09-30 08:46:00,
2013-09-30 04:50:00,54.8,54.0,30.07,NNE,18,4.0,7.0,97,0.00,,OVC038,0.00,VWS V14.01,2013-09-30 08:50:00,
2013-09-30 04:51:00,54.8,54.0,30.07,North,351,0.0,4.0,97,0.00,,OVC038,0.00,VWS V14.01,2013-09-30 08:51:00,
2013-09-30 04:56:00,54.7,53.9,30.07,NW,304,1.0,4.0,97,0.00,,OVC038,0.00,VWS V14.01,2013-09-30 08:56:00,
2013-09-30 05:00:00,54.7,54.2,30.07,NNW,335,0.0,4.0,98,0.00,,OVC038,0.00,VWS V14.01,2013-09-30 09:00:00,
2013-09-30 05:01:00,54.7,54.2,30.07,NNW,335,0.0,0.0,98,0.00,,OVC038,0.00,VWS V14.01,2013-09-30 09:01:00,
2013-09-30 05:06:00,54.7,54.2,30.07,NNW,344,0.0,1.0,98,0.00,,OVC038,0.00,VWS V14.01,2013-09-30 09:06:00,
2013-09-30 05:10:00,54.7,54.2,30.07,NW,319,0.0,2.0,98,0.00,,OVC038,0.00,VWS V14.01,2013-09-30 09:10:00,
2013-09-30 05:11:00,54.8,54.2,30.07,North,1,0.0,2.0,98,0.00,,OVC038,0.00,VWS V14.01,2013-09-30 09:11:00,
2013-09-30 05:16:00,54.8,54.2,30.07,North,353,0.0,3.0,98,0.00,,OVC038,0.00,VWS V14.01,2013-09-30 09:16:00,
2013-09-30 05:20:00,54.9,54.3,30.07,NNW,335,0.0,5.0,98,0.00,,OVC038,0.00,VWS V14.01,2013-09-30 09:20:00,
2013-09-30 05:21:00,54.9,54.3,30.07,NNW,345,0.0,0.0,98,0.00,,OVC038,0.00,VWS V14.01,2013-09-30 09:21:00,
2013-09-30 05:26:00,54.9,54.3,30.07,North,358,6.0,6.0,98,0.00,,OVC038,0.00,VWS V14.01,2013-09-30 09:26:00,
2013-09-30 05:30:00,55.0,54.5,30.07,NNE,17,0.0,6.0,98,0.00,,OVC038,0.00,VWS V14.01,2013-09-30 09:30:00,
2013-09-30 05:31:00,55.0,54.5,30.07,NNW,338,3.0,4.0,98,0.00,,OVC038,0.00,VWS V14.01,2013-09-30 09:31:00,
2013-09-30 05:36:00,55.1,54.5,30.07,NNW,347,1.0,4.0,98,0.00,,OVC038,0.00,VWS V14.01,2013-09-30 09:36:00,
2013-09-30 05:40:00,55.1,54.5,30.07,NNW,345,0.0,4.0,98,0.00,,OVC038,0.00,VWS V14.01,2013-09-30 09:40:00,
2013-09-30 05:41:00,55.1,54.5,30.07,NNW,345,0.0,0.0,98,0.00,,OVC038,0.00,VWS V14.01,2013-09-30 09:41:00,
2013-09-30 05:46:00,55.1,54.5,30.08,NNW,333,0.0,4.0,98,0.00,,OVC038,0.00,VWS V14.01,2013-09-30 09:46:00,
2013-09-30 05:50:00,55.1,54.5,30.08,NNW,342,0.0,4.0,98,0.00,,OVC038,0.00,VWS V14.01,2013-09-30 09:50:00,
2013-09-30 05:51:00,55.1,54.5,30.08,NNW,343,0.0,0.0,98,0.00,,OVC038,0.00,VWS V14.01,2013-09-30 09:51:00,
2013-09-30 05:56:00,55.1,54.5,30.08,NNW,333,4.0,7.0,98,0.00,,OVC038,0.00,VWS V14.01,2013-09-30 09:56:00,
2013-09-30 06:00:00,55.2,54.7,30.07,North,6,3.0,7.0,98,0.00,,OVC038,0.00,VWS V14.01,2013-09-30 10:00:00,
2013-09-30 06:01:00,55.2,54.7,30.07,NW,315,1.0,3.0,98,0.00,,OVC038,0.00,VWS V14.01,2013-09-30 10:01:00,
2013-09-30 06:06:00,55.3,54.8,30.07,NNE,19,2.0,6.0,98,0.00,,OVC038,0.00,VWS V14.01,2013-09-30 10:06:00,
2013-09-30 06:10:00,55.4,54.8,30.08,NNW,346,0.0,6.0,98,0.00,,OVC038,0.00,VWS V14.01,2013-09-30 10:10:00,
2013-09-30 06:11:00,55.4,54.8,30.08,NW,326,2.0,2.0,98,0.00,,OVC038,0.00,VWS V14.01,2013-09-30 10:11:00,
2013-09-30 06:16:00,55.4,54.8,30.08,NNW,333,0.0,3.0,98,0.00,,OVC038,0.00,VWS V14.01,2013-09-30 10:16:00,
2013-09-30 06:20:00,55.4,54.8,30.08,NNE,22,1.0,3.0,98,0.00,,OVC038,0.00,VWS V14.01,2013-09-30 10:20:00,
2013-09-30 06:21:00,55.4,54.8,30.07,NNW,342,1.0,3.0,98,0.00,,OVC038,0.00,VWS V14.01,2013-09-30 10:21:00,
2013-09-30 06:26:00,55.4,54.8,30.08,NNE,20,2.0,4.0,98,0.00,,OVC038,0.00,VWS V14.01,2013-09-30 10:26:00,
2013-09-30 06:30:00,55.4,54.8,30.08,NW,309,0.0,4.0,98,0.00,,OVC038,0.00,VWS V14.01,2013-09-30 10:30:00,
2013-09-30 06:31:00,55.4,54.8,30.08,NW,310,0.0,2.0,98,0.00,,OVC038,0.00,VWS V14.01,2013-09-30 10:31:00,
2013-09-30 06:36:00,55.3,54.8,30.08,North,351,0.0,3.0,98,0.00,,OVC038,0.00,VWS V14.01,2013-09-30 10:36:00,
2013-09-30 06:40:00,55.2,54.7,30.08,North,360,0.0,3.0,98,0.00,,OVC038,0.00,VWS V14.01,2013-09-30 10:40:00,
2013-09-30 06:41:00,55.2,54.7,30.08,North,4,3.0,4.0,98,0.00,,OVC038,0.00,VWS V14.01,2013-09-30 10:41:00,
2013-09-30 06:46:00,55.1,54.5,30.08,North,356,1.0,4.0,98,0.00,,OVC038,0.00,VWS V14.01,2013-09-30 10:46:00,
2013-09-30 06:50:00,55.0,54.5,30.08,NNW,342,3.0,4.0,98,0.00,,OVC038,0.00,VWS V14.01,2013-09-30 10:50:00,
2013-09-30 06:51:00,55.0,54.5,30.08,North,1,0.0,3.0,98,0.00,,OVC038,0.00,VWS V14.01,2013-09-30 10:51:00,
2013-09-30 06:56:00,55.0,54.5,30.08,North,358,3.0,5.0,98,0.00,,OVC038,0.00,VWS V14.01,2013-09-30 10:56:00,
2013-09-30 07:00:00,55.0,54.5,30.08,North,350,1.0,5.0,98,0.00,,OVC038,0.00,VWS V14.01,2013-09-30 11:00:00,
2013-09-30 07:01:00,55.0,54.5,30.08,NNE,15,0.0,1.0,98,0.00,,OVC038,0.00,VWS V14.01,2013-09-30 11:01:00,
2013-09-30 07:06:00,55.0,54.5,30.08,North,356,0.0,4.0,98,0.00,,OVC038,0.00,VWS V14.01,2013-09-30 11:06:00,
2013-09-30 07:10:00,55.0,54.5,30.08,NNW,341,2.0,4.0,98,0.00,,OVC038,0.00,VWS V14.01,2013-09-30 11:10:00,
2013-09-30 07:11:00,55.0,54.5,30.08,NW,319,1.0,3.0,98,0.00,,OVC038,0.00,VWS V14.01,2013-09-30 11:11:00,
2013-09-30 07:16:00,55.1,54.5,30.08,WNW,301,2.0,3.0,98,0.00,,OVC038,0.00,VWS V14.01,2013-09-30 11:16:00,
2013-09-30 07:20:00,55.1,54.5,30.09,North,5,0.0,3.0,98,0.00,,OVC038,0.00,VWS V14.01,2013-09-30 11:20:00,
2013-09-30 07:21:00,55.1,54.5,30.08,North,359,1.0,1.0,98,0.00,,OVC038,0.00,VWS V14.01,2013-09-30 11:21:00,
2013-09-30 07:26:00,55.2,54.7,30.08,NNW,345,3.0,5.0,98,0.00,,OVC038,0.00,VWS V14.01,2013-09-30 11:26:00,
2013-09-30 07:30:00,55.2,54.7,30.08,NNW,335,1.0,5.0,98,0.00,,OVC038,0.00,VWS V14.01,2013-09-30 11:30:00,
2013-09-30 07:31:00,55.2,54.7,30.08,NNW,337,2.0,4.0,98,0.00,,OVC038,0.00,VWS V14.01,2013-09-30 11:31:00,
2013-09-30 07:36:00,55.3,54.8,30.08,North,356,3.0,5.0,98,0.00,,OVC038,0.00,VWS V14.01,2013-09-30 11:36:00,
2013-09-30 07:40:00,55.4,54.8,30.08,NNE,33,1.0,7.0,98,0.00,,OVC038,0.00,VWS V14.01,2013-09-30 11:40:00,
2013-09-30 07:41:00,55.4,54.8,30.08,NNE,19,0.0,2.0,98,0.00,,OVC038,0.00,VWS V14.01,2013-09-30 11:41:00,
2013-09-30 07:46:00,55.5,55.0,30.08,NNW,347,3.0,8.0,98,0.00,,OVC038,0.00,VWS V14.01,2013-09-30 11:46:00,
2013-09-30 07:50:00,55.6,55.0,30.08,NNE,17,3.0,8.0,98,0.00,,OVC038,0.00,VWS V14.01,2013-09-30 11:50:00,
2013-09-30 07:51:00,55.7,55.2,30.09,North,358,0.0,3.0,98,0.00,,OVC038,0.00,VWS V14.01,2013-09-30 11:51:00,
2013-09-30 07:56:00,56.0,55.5,30.09,NE,41,0.0,4.0,98,0.00,,OVC038,0.00,VWS V14.01,2013-09-30 11:56:00,
2013-09-30 08:00:00,56.0,55.5,30.08,NNE,22,6.0,7.0,98,0.00,,OVC038,0.00,VWS V14.01,2013-09-30 12:00:00,
2013-09-30 08:01:00,56.1,55.5,30.08,NNW,344,1.0,6.0,98,0.00,,OVC038,0.00,VWS V14.01,2013-09-30 12:01:00,
2013-09-30 08:06:00,56.3,55.8,30.08,NW,322,2.0,6.0,98,0.00,,OVC038,0.00,VWS V14.01,2013-09-30 12:06:00,
2013-09-30 08:10:00,56.5,55.7,30.08,NNE,12,0.0,6.0,97,0.00,,OVC038,0.00,VWS V14.01,2013-09-30 12:10:00,
2013-09-30 08:11:00,56.5,55.7,30.08,NNE,22,0.0,3.0,97,0.00,,OVC038,0.00,VWS V14.01,2013-09-30 12:11:00,
2013-09-30 08:15:00,56.8,56.0,30.08,NNE,22,0.0,3.0,97,0.00,,OVC038,0.00,VWS V14.01,2013-09-30 12:15:00,
2013-09-30 08:20:00,57.1,56.3,30.07,NE,53,0.0,2.0,97,0.00,,OVC038,0.00,VWS V14.01,2013-09-30 12:20:00,
2013-09-30 08:25:00,57.4,56.6,30.07,North,354,2.0,5.0,97,0.00,,OVC038,0.00,VWS V14.01,2013-09-30 12:25:00,
2013-09-30 08:30:00,57.6,56.5,30.07,NE,53,1.0,4.0,96,0.00,,OVC038,0.00,VWS V14.01,2013-09-30 12:30:00,
2013-09-30 08:35:00,57.9,56.8,30.06,NNW,341,1.0,4.0,96,0.00,,OVC038,0.00,VWS V14.01,2013-09-30 12:35:00,
2013-09-30 08:40:00,58.2,56.8,30.06,NNE,26,0.0,1.0,95,0.00,,OVC038,0.00,VWS V14.01,2013-09-30 12:40:00,
2013-09-30 08:45:00,58.5,57.1,30.06,ENE,68,0.0,1.0,95,0.00,,OVC038,0.00,VWS V14.01,2013-09-30 12:45:00,
2013-09-30 08:50:00,58.9,57.5,30.07,NE,48,2.0,2.0,95,0.00,,OVC038,0.00,VWS V14.01,2013-09-30 12:50:00,
2013-09-30 08:55:00,59.4,57.7,30.06,NNE,32,2.0,2.0,94,0.00,,OVC038,0.00,VWS V14.01,2013-09-30 12:55:00,
2013-09-30 09:00:00,59.6,57.3,30.07,North,359,1.0,5.0,92,0.00,,OVC038,0.00,VWS V14.01,2013-09-30 13:00:00,
2013-09-30 09:05:00,59.6,57.0,30.07,North,8,0.0,6.0,91,0.00,,OVC038,0.00,VWS V14.01,2013-09-30 13:05:00,
2013-09-30 09:10:00,59.8,57.2,30.07,WNW,291,0.0,2.0,91,0.00,,OVC038,0.00,VWS V14.01,2013-09-30 13:10:00,
2013-09-30 09:15:00,60.5,57.9,30.07,NE,43,1.0,4.0,91,0.00,,OVC038,0.00,VWS V14.01,2013-09-30 13:15:00,
2013-09-30 09:20:00,61.2,57.6,30.07,NNE,20,0.0,6.0,88,0.00,,OVC038,0.00,VWS V14.01,2013-09-30 13:20:00,
2013-09-30 09:25:00,62.0,58.4,30.06,ENE,67,1.0,6.0,88,0.00,,OVC038,0.00,VWS V14.01,2013-09-30 13:25:00,
2013-09-30 09:30:00,62.2,58.0,30.06,North,351,2.0,3.0,86,0.00,,OVC038,0.00,VWS V14.01,2013-09-30 13:30:00,
2013-09-30 09:35:00,62.1,57.5,30.06,NNW,345,3.0,6.0,85,0.00,,OVC038,0.00,VWS V14.01,2013-09-30 13:35:00,
2013-09-30 09:40:00,62.1,57.9,30.06,NNE,12,2.0,6.0,86,0.00,,OVC038,0.00,VWS V14.01,2013-09-30 13:40:00,
2013-09-30 09:41:00,62.1,57.9,30.05,WNW,294,6.0,6.0,86,0.00,,OVC038,0.00,VWS V14.01,2013-09-30 13:41:00,
2013-09-30 09:46:00,62.2,57.6,30.05,North,351,3.0,7.0,85,0.00,,OVC038,0.00,VWS V14.01,2013-09-30 13:46:00,
2013-09-30 09:50:00,62.0,57.5,30.05,NNE,24,6.0,9.0,85,0.00,,OVC038,0.00,VWS V14.01,2013-09-30 13:50:00,
2013-09-30 09:51:00,61.9,57.3,30.05,NE,49,0.0,6.0,85,0.00,,OVC038,0.00,VWS V14.01,2013-09-30 13:51:00,
2013-09-30 09:56:00,62.0,57.5,30.05,ENE,74,0.0,6.0,85,0.00,,OVC038,0.00,VWS V14.01,2013-09-30 13:56:00,
2013-09-30 10:00:00,62.2,57.6,30.05,NE,39,0.0,6.0,85,0.00,,OVC038,0.00,VWS V14.01,2013-09-30 14:00:00,
2013-09-30 10:01:00,62.2,57.6,30.05,North,353,2.0,2.0,85,0.00,,OVC038,0.00,VWS V14.01,2013-09-30 14:01:00,
2013-09-30 10:06:00,62.2,57.6,30.05,ENE,70,0.0,4.0,85,0.00,,OVC038,0.00,VWS V14.01,2013-09-30 14:06:00,
2013-09-30 10:10:00,62.3,57.7,30.05,North,3,0.0,4.0,85,0.00,,OVC038,0.00,VWS V14.01,2013-09-30 14:10:00,
2013-09-30 10:11:00,62.5,57.9,30.05,North,354,0.0,3.0,85,0.00,,OVC038,0.00,VWS V14.01,2013-09-30 14:11:00,
2013-09-30 10:16:00,62.9,57.7,30.05,NE,43,1.0,5.0,83,0.00,,OVC038,0.00,VWS V14.01,2013-09-30 14:16:00,
2013-09-30 10:20:00,63.0,57.8,30.05,North,357,1.0,5.0,83,0.00,,OVC038,0.00,VWS V14.01,2013-09-30 14:20:00,
2013-09-30 10:21:00,63.1,57.9,30.05,NNW,337,4.0,7.0,83,0.00,,OVC038,0.00,VWS V14.01,2013-09-30 14:21:00,
2013-09-30 10:26:00,63.5,57.9,30.05,North,4,1.0,7.0,82,0.00,,OVC038,0.00,VWS V14.01,2013-09-30 14:26:00,
2013-09-30 10:30:00,63.7,57.8,30.05,NE,46,2.0,7.0,81,0.00,,OVC038,0.00,VWS V14.01,2013-09-30 14:30:00,
2013-09-30 10:31:00,63.7,57.8,30.05,NE,53,0.0,2.0,81,0.00,,OVC038,0.00,VWS V14.01,2013-09-30 14:31:00,
2013-09-30 10:36:00,63.9,58.0,30.04,NE,44,0.0,2.0,81,0.00,,OVC038,0.00,VWS V14.01,2013-09-30 14:36:00,
2013-09-30 10:40:00,64.0,57.7,30.04,East,91,0.0,2.0,80,0.00,,OVC038,0.00,VWS V14.01,2013-09-30 14:40:00,
2013-09-30 10:41:00,64.1,57.8,30.04,NNE,22,2.0,2.0,80,0.00,,OVC038,0.00,VWS V14.01,2013-09-30 14:41:00,
2013-09-30 10:46:00,64.2,57.6,30.04,NE,45,1.0,4.0,79,0.00,,OVC038,0.00,VWS V14.01,2013-09-30 14:46:00,
2013-09-30 10:50:00,64.2,57.2,30.04,NE,43,0.0,4.0,78,0.00,,OVC038,0.00,VWS V14.01,2013-09-30 14:50:00,
2013-09-30 10:51:00,64.1,56.8,30.04,NNW,340,2.0,2.0,77,0.00,,OVC038,0.00,VWS V14.01,2013-09-30 14:51:00,
2013-09-30 10:56:00,64.5,58.2,30.04,SSW,195,0.0,10.0,80,0.00,,OVC038,0.00,VWS V14.01,2013-09-30 14:56:00,
2013-09-30 11:00:00,65.2,57.5,30.04,NE,56,3.0,10.0,76,0.00,,OVC038,0.00,VWS V14.01,2013-09-30 15:00:00,
2013-09-30 11:01:00,65.2,56.7,30.04,NE,53,0.0,4.0,74,0.00,,OVC038,0.00,VWS V14.01,2013-09-30 15:01:00,
2013-09-30 11:06:00,65.8,58.0,30.04,North,356,0.0,4.0,76,0.00,,OVC038,0.00,VWS V14.01,2013-09-30 15:06:00,
2013-09-30 11:10:00,66.4,58.2,30.03,WNW,299,1.0,4.0,75,0.00,,OVC038,0.00,VWS V14.01,2013-09-30 15:10:00,
2013-09-30 11:11:00,66.4,58.2,30.03,NNE,25,2.0,2.0,75,0.00,,OVC038,0.00,VWS V14.01,2013-09-30 15:11:00,
2013-09-30 11:16:00,66.4,57.9,30.04,NNW,339,2.0,7.0,74,0.00,,OVC038,0.00,VWS V14.01,2013-09-30 15:16:00,
2013-09-30 11:20:00,65.9,57.4,30.03,NE,54,3.0,7.0,74,0.00,,OVC038,0.00,VWS V14.01,2013-09-30 15:20:00,
2013-09-30 11:21:00,65.8,57.3,30.03,NNW,333,2.0,3.0,74,0.00,,OVC038,0.00,VWS V14.01,2013-09-30 15:21:00,
2013-09-30 11:26:00,65.4,56.5,30.03,NNE,17,1.0,3.0,73,0.00,,OVC038,0.00,VWS V14.01,2013-09-30 15:26:00,
2013-09-30 11:30:00,65.0,56.5,30.03,NE,51,0.0,3.0,74,0.00,,OVC038,0.00,VWS V14.01,2013-09-30 15:30:00,
2013-09-30 11:31:00,65.0,56.5,30.03,NE,50,1.0,2.0,74,0.00,,OVC038,0.00,VWS V14.01,2013-09-30 15:31:00,
2013-09-30 11:36:00,65.4,56.9,30.03,NE,55,1.0,3.0,74,0.00,,OVC038,0.00,VWS V14.01,2013-09-30 15:36:00,
2013-09-30 11:40:00,66.1,57.2,30.03,ESE,121,1.0,4.0,73,0.00,,OVC038,0.00,VWS V14.01,2013-09-30 15:40:00,
2013-09-30 11:41:00,66.4,57.5,30.03,East,86,3.0,3.0,73,0.00,,OVC038,0.00,VWS V14.01,2013-09-30 15:41:00,
2013-09-30 11:46:00,67.2,57.9,30.02,ESE,104,4.0,4.0,72,0.00,,OVC038,0.00,VWS V14.01,2013-09-30 15:46:00,
2013-09-30 11:50:00,67.7,58.0,30.02,NE,53,2.0,8.0,71,0.00,,OVC038,0.00,VWS V14.01,2013-09-30 15:50:00,
2013-09-30 11:51:00,67.6,57.9,30.02,NE,37,1.0,2.0,71,0.00,,OVC038,0.00,VWS V14.01,2013-09-30 15:51:00,
2013-09-30 11:56:00,66.7,57.0,30.02,NE,44,1.0,3.0,71,0.00,,OVC038,0.00,VWS V14.01,2013-09-30 15:56:00,
2013-09-30 12:00:00,66.5,57.2,30.02,NNE,13,2.0,5.0,72,0.00,,OVC038,0.00,VWS V14.01,2013-09-30 16:00:00,
2013-09-30 12:01:00,66.5,57.6,30.02,NE,53,1.0,3.0,73,0.00,,OVC038,0.00,VWS V14.01,2013-09-30 16:01:00,
2013-09-30 12:06:00,66.2,56.9,30.02,WNW,284,0.0,4.0,72,0.00,,OVC038,0.00,VWS V14.01,2013-09-30 16:06:00,
2013-09-30 12:10:00,66.7,57.4,30.02,NNW,339,2.0,4.0,72,0.00,,OVC038,0.00,VWS V14.01,2013-09-30 16:10:00,
2013-09-30 12:11:00,66.9,57.2,30.02,ESE,108,4.0,4.0,71,0.00,,OVC038,0.00,VWS V14.01,2013-09-30 16:11:00,
2013-09-30 12:16:00,68.2,57.7,30.02,NNW,345,3.0,5.0,69,0.00,,OVC038,0.00,VWS V14.01,2013-09-30 16:16:00,
2013-09-30 12:20:00,67.7,56.8,30.02,ENE,67,0.0,10.0,68,0.00,,OVC038,0.00,VWS V14.01,2013-09-30 16:20:00,
2013-09-30 12:21:00,67.4,56.5,30.02,NE,36,1.0,5.0,68,0.00,,OVC038,0.00,VWS V14.01,2013-09-30 16:21:00,
2013-09-30 12:26:00,66.6,56.5,30.02,East,100,0.0,5.0,70,0.00,,OVC038,0.00,VWS V14.01,2013-09-30 16:26:00,
2013-09-30 12:30:00,66.2,56.5,30.02,NE,41,0.0,5.0,71,0.00,,OVC038,0.00,VWS V14.01,2013-09-30 16:30:00,
2013-09-30 12:31:00,66.1,56.4,30.02,NE,39,0.0,3.0,71,0.00,,OVC038,0.00,VWS V14.01,2013-09-30 16:31:00,
2013-09-30 12:36:00,65.7,56.4,30.02,NE,46,1.0,3.0,72,0.00,,OVC038,0.00,VWS V14.01,2013-09-30 16:36:00,
2013-09-30 12:40:00,65.9,56.6,30.02,NE,43,2.0,3.0,72,0.00,,OVC038,0.00,VWS V14.01,2013-09-30 16:40:00,
2013-09-30 12:41:00,66.1,56.8,30.01,NE,55,2.0,2.0,72,0.00,,OVC038,0.00,VWS V14.01,2013-09-30 16:41:00,
2013-09-30 12:46:00,66.7,56.2,30.01,ESE,106,1.0,2.0,69,0.00,,OVC038,0.00,VWS V14.01,2013-09-30 16:46:00,
2013-09-30 12:50:00,67.5,57.0,30.01,ESE,120,1.0,3.0,69,0.00,,OVC038,0.00,VWS V14.01,2013-09-30 16:50:00,
2013-09-30 12:51:00,67.8,56.9,30.01,West,274,0.0,1.0,68,0.00,,OVC038,0.00,VWS V14.01,2013-09-30 16:51:00,
2013-09-30 12:56:00,67.7,56.0,30.01,NW,319,2.0,9.0,66,0.00,,OVC038,0.00,VWS V14.01,2013-09-30 16:56:00,
2013-09-30 13:00:00,67.0,56.1,30.01,NNW,345,2.0,10.0,68,0.00,,OVC038,0.00,VWS V14.01,2013-09-30 17:00:00,
2013-09-30 13:01:00,66.9,56.0,30.01,ENE,66,0.0,2.0,68,0.00,,OVC038,0.00,VWS V14.01,2013-09-30 17:01:00,
2013-09-30 13:06:00,66.4,55.9,30.01,NNE,18,4.0,9.0,69,0.00,,OVC038,0.00,VWS V14.01,2013-09-30 17:06:00,
2013-09-30 13:10:00,66.2,56.5,30.01,North,6,9.0,9.0,71,0.00,,OVC038,0.00,VWS V14.01,2013-09-30 17:10:00,
2013-09-30 13:11:00,66.0,56.3,30.01,NNW,328,3.0,9.0,71,0.00,,OVC038,0.00,VWS V14.01,2013-09-30 17:11:00,
2013-09-30 13:16:00,65.6,56.0,30.01,NE,55,0.0,9.0,71,0.00,,OVC038,0.00,VWS V14.01,2013-09-30 17:16:00,
2013-09-30 13:20:00,65.3,55.7,30.01,NNW,338,6.0,9.0,71,0.00,,OVC038,0.00,VWS V14.01,2013-09-30 17:20:00,
2013-09-30 13:21:00,65.3,55.7,30.01,ENE,57,3.0,7.0,71,0.00,,OVC038,0.00,VWS V14.01,2013-09-30 17:21:00,
2013-09-30 13:26:00,65.8,56.5,30.01,East,91,2.0,7.0,72,0.00,,OVC038,0.00,VWS V14.01,2013-09-30 17:26:00,
2013-09-30 13:30:00,66.7,56.6,30.00,ESE,113,0.0,7.0,70,0.00,,OVC038,0.00,VWS V14.01,2013-09-30 17:30:00,
2013-09-30 13:31:00,67.0,56.9,30.01,ESE,116,4.0,4.0,70,0.00,,OVC038,0.00,VWS V14.01,2013-09-30 17:31:00,
2013-09-30 13:36:00,67.2,55.9,30.01,ENE,65,1.0,7.0,67,0.00,,OVC038,0.00,VWS V14.01,2013-09-30 17:36:00,
2013-09-30 13:40:00,66.9,56.0,30.01,North,354,0.0,7.0,68,0.00,,OVC038,0.00,VWS V14.01,2013-09-30 17:40:00,
2013-09-30 13:41:00,66.9,55.6,30.01,WNW,285,1.0,1.0,67,0.00,,OVC038,0.00,VWS V14.01,2013-09-30 17:41:00,
2013-09-30 13:46:00,66.9,55.6,30.00,NW,316,4.0,4.0,67,0.00,,OVC038,0.00,VWS V14.01,2013-09-30 17:46:00,
2013-09-30 13:50:00,67.2,55.9,30.00,West,280,2.0,4.0,67,0.00,,OVC038,0.00,VWS V14.01,2013-09-30 17:50:00,
2013-09-30 13:51:00,67.3,56.4,30.00,ENE,63,3.0,3.0,68,0.00,,OVC038,0.00,VWS V14.01,2013-09-30 17:51:00,
2013-09-30 13:56:00,67.5,56.2,30.00,North,351,3.0,4.0,67,0.00,,OVC038,0.00,VWS V14.01,2013-09-30 17:56:00,
2013-09-30 14:00:00,67.4,55.2,30.00,ENE,60,3.0,6.0,65,0.00,,OVC038,0.00,VWS V14.01,2013-09-30 18:00:00,
2013-09-30 14:01:00,67.2,55.5,30.00,NE,45,2.0,3.0,66,0.00,,OVC038,0.00,VWS V14.01,2013-09-30 18:01:00,
2013-09-30 14:06:00,66.7,55.4,30.00,NE,43,1.0,4.0,67,0.00,,OVC038,0.00,VWS V14.01,2013-09-30 18:06:00,
2013-09-30 14:10:00,66.4,55.9,30.00,NE,51,2.0,4.0,69,0.00,,OVC038,0.00,VWS V14.01,2013-09-30 18:10:00,
2013-09-30 14:15:00,66.2,55.7,30.00,NNE,28,1.0,4.0,69,0.00,,OVC038,0.00,VWS V14.01,2013-09-30 18:15:00,
2013-09-30 14:20:00,66.0,56.0,30.00,NNE,17,0.0,1.0,70,0.00,,OVC038,0.00,VWS V14.01,2013-09-30 18:20:00,
2013-09-30 14:25:00,66.0,56.0,29.99,NE,49,1.0,2.0,70,0.00,,OVC038,0.00,VWS V14.01,2013-09-30 18:25:00,
2013-09-30 14:30:00,66.3,55.4,29.99,ENE,64,1.0,1.0,68,0.00,,OVC038,0.00,VWS V14.01,2013-09-30 18:30:00,
2013-09-30 14:35:00,66.9,55.6,29.99,NE,51,0.0,2.0,67,0.00,,OVC038,0.00,VWS V14.01,2013-09-30 18:35:00,
2013-09-30 14:40:00,68.1,56.3,29.99,SE,146,1.0,4.0,66,0.00,,OVC038,0.00,VWS V14.01,2013-09-30 18:40:00,
2013-09-30 14:45:00,68.2,56.0,29.99,ENE,62,0.0,4.0,65,0.00,,OVC038,0.00,VWS V14.01,2013-09-30 18:45:00,
2013-09-30 14:50:00,67.2,55.5,29.99,NW,307,3.0,7.0,66,0.00,,OVC038,0.00,VWS V14.01,2013-09-30 18:50:00,
2013-09-30 14:55:00,66.7,55.8,29.98,NE,39,3.0,7.0,68,0.00,,OVC038,0.00,VWS V14.01,2013-09-30 18:55:00,
2013-09-30 15:00:00,66.7,55.4,29.98,SE,136,1.0,3.0,67,0.00,,OVC038,0.00,VWS V14.01,2013-09-30 19:00:00,
2013-09-30 15:05:00,66.8,55.9,29.98,East,89,0.0,3.0,68,0.00,,OVC038,0.00,VWS V14.01,2013-09-30 19:05:00,
2013-09-30 15:10:00,67.2,55.5,29.98,NNE,17,4.0,5.0,66,0.00,,OVC038,0.00,VWS V14.01,2013-09-30 19:10:00,
2013-09-30 15:15:00,66.7,55.0,29.98,NE,43,0.0,10.0,66,0.00,,OVC038,0.00,VWS V14.01,2013-09-30 19:15:00,
2013-09-30 15:20:00,66.3,55.4,29.98,NNW,329,4.0,4.0,68,0.00,,OVC038,0.00,VWS V14.01,2013-09-30 19:20:00,
2013-09-30 15:25:00,66.4,55.5,29.98,NE,56,5.0,10.0,68,0.00,,OVC038,0.00,VWS V14.01,2013-09-30 19:25:00,
2013-09-30 15:30:00,66.9,56.4,29.98,NNE,22,1.0,4.0,69,0.00,,OVC038,0.00,VWS V14.01,2013-09-30 19:30:00,
2013-09-30 15:35:00,67.5,55.8,29.98,NE,43,1.0,7.0,66,0.00,,OVC038,0.00,VWS V14.01,2013-09-30 19:35:00,
2013-09-30 15:40:00,67.1,55.4,29.98,NE,49,1.0,2.0,66,0.00,,OVC038,0.00,VWS V14.01,2013-09-30 19:40:00,
2013-09-30 15:45:00,66.3,54.6,29.98,North,354,1.0,4.0,66,0.00,,OVC038,0.00,VWS V14.01,2013-09-30 19:45:00,
2013-09-30 15:50:00,66.2,55.3,29.98,NNE,27,3.0,4.0,68,0.00,,OVC038,0.00,VWS V14.01,2013-09-30 19:50:00,
2013-09-30 15:55:00,66.2,55.3,29.97,North,7,7.0,7.0,68,0.00,,OVC038,0.00,VWS V14.01,2013-09-30 19:55:00,
2013-09-30 16:00:00,66.1,54.8,29.97,NNW,338,3.0,5.0,67,0.00,,OVC038,0.00,VWS V14.01,2013-09-30 20:00:00,
2013-09-30 16:05:00,66.3,55.8,29.97,ENE,63,2.0,5.0,69,0.00,,OVC038,0.00,VWS V14.01,2013-09-30 20:05:00,
2013-09-30 16:10:00,66.3,55.4,29.97,NNE,28,2.0,5.0,68,0.00,,OVC038,0.00,VWS V14.01,2013-09-30 20:10:00,
2013-09-30 16:15:00,66.2,55.7,29.97,NNW,340,2.0,7.0,69,0.00,,OVC038,0.00,VWS V14.01,2013-09-30 20:15:00,
2013-09-30 16:20:00,66.0,55.2,29.97,North,356,4.0,4.0,68,0.00,,OVC038,0.00,VWS V14.01,2013-09-30 20:20:00,
2013-09-30 16:25:00,66.1,54.8,29.97,NE,34,0.0,6.0,67,0.00,,OVC038,0.00,VWS V14.01,2013-09-30 20:25:00,
2013-09-30 16:30:00,66.2,54.9,29.97,West,266,0.0,3.0,67,0.00,,OVC038,0.00,VWS V14.01,2013-09-30 20:30:00,
2013-09-30 16:35:00,66.5,55.6,29.97,NE,46,0.0,3.0,68,0.00,,OVC038,0.00,VWS V14.01,2013-09-30 20:35:00,
2013-09-30 16:40:00,66.2,54.9,29.97,NE,43,3.0,5.0,67,0.00,,OVC038,0.00,VWS V14.01,2013-09-30 20:40:00,
2013-09-30 16:45:00,65.9,55.5,29.97,North,6,0.0,5.0,69,0.00,,OVC038,0.00,VWS V14.01,2013-09-30 20:45:00,
2013-09-30 16:50:00,66.2,55.3,29.97,North,4,1.0,4.0,68,0.00,,OVC038,0.00,VWS V14.01,2013-09-30 20:50:00,
2013-09-30 16:55:00,66.2,55.3,29.97,North,350,5.0,5.0,68,0.00,,OVC038,0.00,VWS V14.01,2013-09-30 20:55:00,
2013-09-30 17:00:00,65.9,55.0,29.97,ENE,68,1.0,3.0,68,0.00,,OVC038,0.00,VWS V14.01,2013-09-30 21:00:00,
2013-09-30 17:05:00,65.6,54.8,29.97,NE,56,0.0,4.0,68,0.00,,OVC038,0.00,VWS V14.01,2013-09-30 21:05:00,
2013-09-30 17:10:00,65.6,55.2,29.98,East,79,0.0,2.0,69,0.00,,OVC038,0.00,VWS V14.01,2013-09-30 21:10:00,
2013-09-30 17:15:00,65.5,55.5,29.98,ENE,68,1.0,2.0,70,0.00,,OVC038,0.00,VWS V14.01,2013-09-30 21:15:00,
2013-09-30 17:20:00,65.4,55.4,29.98,NE,46,0.0,0.0,70,0.00,,OVC038,0.00,VWS V14.01,2013-09-30 21:20:00,
2013-09-30 17:25:00,65.4,55.8,29.98,NE,50,1.0,2.0,71,0.00,,OVC038,0.00,VWS V14.01,2013-09-30 21:25:00,
2013-09-30 17:30:00,65.0,55.4,29.98,NE,38,0.0,2.0,71,0.00,,OVC038,0.00,VWS V14.01,2013-09-30 21:30:00,
2013-09-30 17:35:00,64.7,55.5,29.98,NE,56,1.0,2.0,72,0.00,,OVC038,0.00,VWS V14.01,2013-09-30 21:35:00,
2013-09-30 17:40:00,64.6,55.4,29.98,NE,40,0.0,1.0,72,0.00,,OVC038,0.00,VWS V14.01,2013-09-30 21:40:00,
2013-09-30 17:45:00,64.4,55.2,29.98,NE,47,0.0,1.0,72,0.00,,OVC038,0.00,VWS V14.01,2013-09-30 21:45:00,
2013-09-30 17:50:00,64.2,55.4,29.98,NE,46,0.0,0.0,73,0.00,,OVC038,0.00,VWS V14.01,2013-09-30 21:50:00,
2013-09-30 17:55:00,64.1,55.7,29.98,NE,46,0.0,0.0,74,0.00,,OVC038,0.00,VWS V14.01,2013-09-30 21:55:00,
2013-09-30 18:00:00,63.8,55.4,29.98,NNE,22,0.0,2.0,74,0.00,,OVC038,0.00,VWS V14.01,2013-09-30 22:00:00,
2013-09-30 18:05:00,63.3,55.2,29.98,ENE,60,0.0,2.0,75,0.00,,OVC038,0.00,VWS V14.01,2013-09-30 22:05:00,
2013-09-30 18:10:00,62.7,55.0,29.98,NE,51,1.0,2.0,76,0.00,,OVC038,0.00,VWS V14.01,2013-09-30 22:10:00,
2013-09-30 18:15:00,62.1,54.8,29.98,NE,51,0.0,2.0,77,0.00,,OVC038,0.00,VWS V14.01,2013-09-30 22:15:00,
2013-09-30 18:20:00,61.4,54.5,29.98,NE,53,0.0,1.0,78,0.00,,OVC038,0.00,VWS V14.01,2013-09-30 22:20:00,
2013-09-30 18:25:00,60.8,54.3,29.98,NE,53,0.0,1.0,79,0.00,,OVC038,0.00,VWS V14.01,2013-09-30 22:25:00,
2013-09-30 18:30:00,60.3,54.5,29.98,NE,53,0.0,0.0,81,0.00,,OVC038,0.00,VWS V14.01,2013-09-30 22:30:00,
2013-09-30 18:35:00,59.9,54.4,29.98,NE,50,0.0,0.0,82,0.00,,OVC038,0.00,VWS V14.01,2013-09-30 22:35:00,
2013-09-30 18:40:00,59.4,53.9,29.98,NE,49,0.0,1.0,82,0.00,,OVC038,0.00,VWS V14.01,2013-09-30 22:40:00,
2013-09-30 18:45:00,59.0,53.8,29.98,NE,50,0.0,1.0,83,0.00,,OVC038,0.00,VWS V14.01,2013-09-30 22:45:00,
2013-09-30 18:50:00,58.6,53.8,29.98,NE,50,0.0,0.0,84,0.00,,OVC038,0.00,VWS V14.01,2013-09-30 22:50:00,
2013-09-30 18:55:00,58.2,53.7,29.98,NE,49,0.0,0.0,85,0.00,,OVC038,0.00,VWS V14.01,2013-09-30 22:55:00,
2013-09-30 19:00:00,57.8,53.7,29.98,NE,50,0.0,0.0,86,0.00,,OVC038,0.00,VWS V14.01,2013-09-30 23:00:00,
2013-09-30 19:05:00,57.5,53.3,29.98,NE,49,0.0,0.0,86,0.00,,OVC038,0.00,VWS V14.01,2013-09-30 23:05:00,
2013-09-30 19:10:00,57.1,53.3,29.98,NNW,348,0.0,0.0,87,0.00,,OVC038,0.00,VWS V14.01,2013-09-30 23:10:00,
2013-09-30 19:15:00,56.8,53.0,29.98,North,351,0.0,0.0,87,0.00,,OVC038,0.00,VWS V14.01,2013-09-30 23:15:00,
2013-09-30 19:20:00,56.5,53.0,29.98,North,351,0.0,0.0,88,0.00,,OVC038,0.00,VWS V14.01,2013-09-30 23:20:00,
2013-09-30 19:25:00,56.2,52.7,29.98,North,351,0.0,1.0,88,0.00,,OVC038,0.00,VWS V14.01,2013-09-30 23:25:00,
2013-09-30 19:30:00,56.0,52.8,29.98,North,351,0.0,0.0,89,0.00,,OVC038,0.00,VWS V14.01,2013-09-30 23:30:00,
2013-09-30 19:35:00,55.8,52.6,29.98,North,352,0.0,0.0,89,0.00,,OVC038,0.00,VWS V14.01,2013-09-30 23:35:00,
2013-09-30 19:40:00,55.6,52.4,29.98,North,351,0.0,0.0,89,0.00,,OVC038,0.00,VWS V14.01,2013-09-30 23:40:00,
2013-09-30 19:45:00,55.5,52.3,29.98,North,351,0.0,0.0,89,0.00,,OVC038,0.00,VWS V14.01,2013-09-30 23:45:00,
2013-09-30 19:50:00,55.3,52.4,29.98,North,351,0.0,0.0,90,0.00,,OVC038,0.00,VWS V14.01,2013-09-30 23:50:00,
2013-09-30 19:55:00,55.1,52.2,29.98,North,352,0.0,1.0,90,0.00,,OVC038,0.00,VWS V14.01,2013-09-30 23:55:00,
2013-09-30 20:00:00,54.9,52.0,29.98,North,352,0.0,0.0,90,0.00,,OVC038,0.00,VWS V14.01,2013-10-01 00:00:00,
2013-09-30 20:05:00,54.6,51.7,29.98,North,352,0.0,0.0,90,0.00,,OVC038,0.00,VWS V14.01,2013-10-01 00:05:00,
2013-09-30 20:10:00,54.2,51.3,29.98,North,351,0.0,0.0,90,0.00,,OVC038,0.00,VWS V14.01,2013-10-01 00:10:00,
2013-09-30 20:15:00,53.8,51.2,29.98,North,352,0.0,0.0,91,0.00,,OVC038,0.00,VWS V14.01,2013-10-01 00:15:00,
2013-09-30 20:20:00,53.5,50.9,29.98,North,351,0.0,0.0,91,0.00,,OVC038,0.00,VWS V14.01,2013-10-01 00:20:00,
2013-09-30 20:25:00,53.2,50.9,29.98,North,351,0.0,0.0,92,0.00,,OVC038,0.00,VWS V14.01,2013-10-01 00:25:00,
2013-09-30 20:30:00,52.8,50.5,29.98,North,351,0.0,0.0,92,0.00,,OVC038,0.00,VWS V14.01,2013-10-01 00:30:00,
2013-09-30 20:35:00,52.6,50.3,29.98,North,352,0.0,0.0,92,0.00,,OVC038,0.00,VWS V14.01,2013-10-01 00:35:00,
2013-09-30 20:40:00,52.2,50.0,29.98,North,351,0.0,0.0,92,0.00,,OVC038,0.00,VWS V14.01,2013-10-01 00:40:00,
2013-09-30 20:45:00,52.0,50.0,29.98,North,351,0.0,0.0,93,0.00,,OVC038,0.00,VWS V14.01,2013-10-01 00:45:00,
2013-09-30 20:50:00,52.0,50.0,29.98,North,351,0.0,0.0,93,0.00,,OVC038,0.00,VWS V14.01,2013-10-01 00:50:00,
2013-09-30 20:55:00,51.7,49.8,29.98,North,352,0.0,0.0,93,0.00,,OVC038,0.00,VWS V14.01,2013-10-01 00:55:00,
2013-09-30 21:00:00,51.6,49.9,29.98,North,351,0.0,0.0,94,0.00,,OVC038,0.00,VWS V14.01,2013-10-01 01:00:00,
2013-09-30 21:05:00,51.4,49.7,29.98,North,351,0.0,0.0,94,0.00,,OVC038,0.00,VWS V14.01,2013-10-01 01:05:00,
2013-09-30 21:10:00,51.3,49.6,29.98,North,351,0.0,0.0,94,0.00,,OVC038,0.00,VWS V14.01,2013-10-01 01:10:00,
2013-09-30 21:15:00,51.2,49.8,29.98,North,351,0.0,0.0,95,0.00,,OVC038,0.00,VWS V14.01,2013-10-01 01:15:00,
2013-09-30 21:20:00,51.0,49.3,29.98,North,352,0.0,0.0,94,0.00,,OVC038,0.00,VWS V14.01,2013-10-01 01:20:00,
2013-09-30 21:25:00,50.9,49.5,29.97,North,351,0.0,0.0,95,0.00,,OVC038,0.00,VWS V14.01,2013-10-01 01:25:00,
2013-09-30 21:30:00,50.8,49.4,29.97,North,351,0.0,0.0,95,0.00,,OVC038,0.00,VWS V14.01,2013-10-01 01:30:00,
2013-09-30 21:35:00,50.4,48.7,29.97,North,351,0.0,0.0,94,0.00,,OVC038,0.00,VWS V14.01,2013-10-01 01:35:00,
2013-09-30 21:40:00,50.1,48.7,29.97,North,351,0.0,0.0,95,0.00,,OVC038,0.00,VWS V14.01,2013-10-01 01:40:00,
2013-09-30 21:45:00,50.2,49.1,29.97,North,351,0.0,0.0,96,0.00,,OVC038,0.00,VWS V14.01,2013-10-01 01:45:00,
2013-09-30 21:50:00,50.3,49.2,29.97,North,351,0.0,0.0,96,0.00,,OVC038,0.00,VWS V14.01,2013-10-01 01:50:00,
2013-09-30 21:55:00,50.3,48.9,29.97,North,351,0.0,0.0,95,0.00,,OVC038,0.00,VWS V14.01,2013-10-01 01:55:00,
2013-09-30 22:00:00,50.0,48.6,29.97,North,351,0.0,0.0,95,0.00,,OVC038,0.00,VWS V14.01,2013-10-01 02:00:00,
2013-09-30 22:05:00,49.9,48.5,29.97,North,351,0.0,0.0,95,0.00,,OVC038,0.00,VWS V14.01,2013-10-01 02:05:00,
2013-09-30 22:10:00,49.7,48.3,29.97,North,351,0.0,0.0,95,0.00,,OVC038,0.00,VWS V14.01,2013-10-01 02:10:00,
2013-09-30 22:15:00,49.5,48.1,29.97,North,351,0.0,0.0,95,0.00,,OVC038,0.00,VWS V14.01,2013-10-01 02:15:00,
2013-09-30 22:20:00,49.4,48.0,29.97,North,351,0.0,0.0,95,0.00,,OVC038,0.00,VWS V14.01,2013-10-01 02:20:00,
2013-09-30 22:25:00,49.3,48.2,29.97,North,351,0.0,0.0,96,0.00,,OVC038,0.00,VWS V14.01,2013-10-01 02:25:00,
2013-09-30 22:30:00,49.2,48.1,29.97,North,351,0.0,0.0,96,0.00,,OVC038,0.00,VWS V14.01,2013-10-01 02:30:00,
2013-09-30 22:35:00,48.9,47.5,29.97,North,351,0.0,0.0,95,0.00,,OVC038,0.00,VWS V14.01,2013-10-01 02:35:00,
2013-09-30 22:40:00,48.5,47.1,29.97,North,351,0.0,0.0,95,0.00,,OVC038,0.00,VWS V14.01,2013-10-01 02:40:00,
2013-09-30 22:45:00,48.2,47.1,29.97,North,351,0.0,0.0,96,0.00,,OVC038,0.00,VWS V14.01,2013-10-01 02:45:00,
2013-09-30 22:50:00,48.2,47.1,29.97,North,351,0.0,0.0,96,0.00,,OVC038,0.00,VWS V14.01,2013-10-01 02:50:00,
2013-09-30 22:55:00,48.1,47.0,29.97,North,351,0.0,0.0,96,0.00,,OVC038,0.00,VWS V14.01,2013-10-01 02:55:00,
2013-09-30 23:00:00,48.2,47.1,29.97,North,351,0.0,0.0,96,0.00,,OVC038,0.00,VWS V14.01,2013-10-01 03:00:00,
2013-09-30 23:05:00,48.1,47.0,29.97,North,351,0.0,0.0,96,0.00,,OVC038,0.00,VWS V14.01,2013-10-01 03:05:00,
2013-09-30 23:10:00,48.2,47.1,29.97,North,351,0.0,0.0,96,0.00,,OVC038,0.00,VWS V14.01,2013-10-01 03:10:00,
2013-09-30 23:15:00,48.1,47.0,29.98,North,351,0.0,0.0,96,0.00,,OVC038,0.00,VWS V14.01,2013-10-01 03:15:00,
2013-09-30 23:20:00,48.0,46.9,29.97,North,352,0.0,0.0,96,0.00,,OVC038,0.00,VWS V14.01,2013-10-01 03:20:00,
2013-09-30 23:25:00,48.0,46.9,29.97,North,351,0.0,0.0,96,0.00,,OVC038,0.00,VWS V14.01,2013-10-01 03:25:00,
2013-09-30 23:30:00,47.9,46.8,29.97,North,352,0.0,0.0,96,0.00,,OVC038,0.00,VWS V14.01,2013-10-01 03:30:00,
2013-09-30 23:35:00,47.7,46.6,29.97,North,351,0.0,0.0,96,0.00,,OVC038,0.00,VWS V14.01,2013-10-01 03:35:00,
2013-09-30 23:40:00,47.6,46.5,29.97,North,351,0.0,0.0,96,0.00,,OVC038,0.00,VWS V14.01,2013-10-01 03:40:00,
2013-09-30 23:45:00,47.6,46.8,29.97,North,351,0.0,0.0,97,0.00,,OVC038,0.00,VWS V14.01,2013-10-01 03:45:00,
2013-09-30 23:50:00,47.6,46.5,29.97,North,351,0.0,0.0,96,0.00,,OVC038,0.00,VWS V14.01,2013-10-01 03:50:00,
2013-09-30 23:55:00,47.3,46.2,29.97,North,351,0.0,0.0,96,0.00,,OVC038,0.00,VWS V14.01,2013-10-01 03:55:00,